www.pogodaiklimat.ru

Погода и климат >> Архив погоды >> Португалия >> Ангра-ду-Эроижму


ПОГОДА в Ангра-ду-Эроижму

  • Прогноз погоды в Ангра-ду-Эроижму
  • Монитор погоды в Ангра-ду-Эроижму

АРХИВ ПОГОДЫ в Ангра-ду-Эроижму

Время (UTC), дата Ветер
(напр.,м/с)
 
Видим.   Явления Облачность Т
(С)
Тd
(С)
f
(%)
Тe
(С)
Тes
(С)
Комфортность P
(гПа)
Po
(гПа)
Тmin
(С)
Tmax
(С)
R
(мм)
R24
(мм)
S
(см)
10 18.06 штиль 0 н/о н/о +19.7 +14.6 72 +21 +21 комфорт 1016.4 1005.9
11 18.06 штиль 0 н/о н/о +18.7 +15.6 82 +20 +20 1016.9 1006.3
12 18.06 штиль 0 1800 м 10/10 210 м
[Cu Sc]
+17.2 +13.8 80 +17 +17 1017.1 1006.5
13 18.06 штиль 0 н/о н/о +19.0 +16.1 83 +20 +20 1017.3 1006.7
14 18.06 штиль 0 н/о н/о +18.8 +17.2 90 +20 +20 1017.1 1006.5
15 18.06 С 2-6
{6}
1500 м 10/10 200 м
[St Ac trans]
+20.0 +16.1 78 +23 +23 комфорт 1016.6 1006.1
16 18.06 СВ 3
{6}
н/о н/о +18.8 +17.0 89 +20 +20 1017.1 1006.5
17 18.06
{5}
н/о н/о +18.9 +16.1 84 1017.5 1006.9
18 18.06 штиль 0 н/о н/о +18.3 +15.9 86 +19 +19 1017.6 1006.9 +20.1
19 18.06 штиль 0 н/о н/о +18.6 +17.0 90 +19 +19 1017.4 1006.8
20 18.06 штиль 0 н/о н/о +18.1 +18.1 100 +18 +18 1017.6 1007.0
21 18.06 штиль 0 н/о н/о +17.7 +16.9 95 +18 +18 1017.6 1007.0
22 18.06 штиль 0 н/о н/о +17.5 +17.2 98 +17 +17 1017.8 1007.1
23 18.06 штиль 0 н/о н/о +17.3 +17.3 100 +17 +17 1018.3 1007.6
00 19.06 штиль 0 н/о н/о +17.4 +17.4 100 +17 +17 1018.4 1007.7
01 19.06 штиль 0 н/о н/о +17.4 +17.4 100 +17 +17 1018.3 1007.6
02 19.06 штиль 0 н/о н/о +17.2 +17.2 100 +17 +17 1018.0 1007.3
03 19.06 штиль 0 н/о н/о +17.2 +17.2 100 +17 +17 1017.6 1007.0
04 19.06 штиль 0 н/о н/о +16.9 +16.9 100 +17 +17 1017.3 1006.6
05 19.06 штиль 0 н/о н/о +16.9 +16.9 100 +17 +17 1017.7 1007.0
06 19.06 штиль 0 н/о н/о +16.8 +16.8 100 +17 +17 1017.8 1007.1 +16.8
07 19.06 штиль 0 н/о н/о +17.0 +17.0 100 +17 +17 1018.0 1007.3
08 19.06 штиль 0 н/о н/о +18.0 +18.0 100 +18 +18 1018.4 1007.7
09 19.06 штиль 0 2000 м 9/9 600 м
[Sc Ac und]
+19.1 +15.7 81 +20 +21 1018.7 1008.1
10 19.06 штиль 0 н/о н/о +18.8 +18.1 96 +20 +20 1018.8 1008.2
11 19.06 СВ 2
{5}
н/о н/о +20.0 +18.3 90 +24 +24 комфорт 1018.8 1008.2
12 19.06 С 1
{5}
2000 м 9/6 600 м
[St As op]
+20.9 +18.3 85 +26 +30 душно 1019.2 1008.7
13 19.06
{5}
н/о н/о +21.1 +19.1 88 1019.2 1008.7
14 19.06 штиль 0
{5}
н/о н/о +20.9 +19.9 94 +25 +25 комфорт 1019.1 1008.5
15 19.06 штиль 0
{5}
2000 м 8/8 300 м
[St Ac lent]
+21.6 +17.4 77 +26 +31 душно 1019.0 1008.4
16 19.06
{5}
н/о н/о +20.8 +20.8 100 1018.9 1008.3
17 19.06 СВ 2 н/о н/о +20.1 +19.6 97 +24 +24 комфорт 1018.9 1008.4
18 19.06 штиль 0 н/о н/о +19.9 +19.9 100 +23 +23 комфорт 1018.9 1008.3 +21.8
19 19.06 СВ 1 н/о н/о +19.9 +19.9 100 +24 +24 комфорт 1018.8 1008.2
20 19.06 штиль 0 н/о н/о +18.9 +18.9 100 +20 +20 1018.7 1008.1
21 19.06 штиль 0 н/о н/о +18.7 +18.7 100 +20 +20 1019.0 1008.4
22 19.06 штиль 0 н/о н/о +18.5 +18.5 100 +19 +19 1019.3 1008.7
23 19.06 штиль 0 н/о н/о +18.6 -27.5 3 +18 +18 1019.6 1009.0
00 20.06 штиль 0 н/о н/о +18.4 +18 +18 1019.5 1008.9
01 20.06 штиль 0 н/о н/о +18.4 +18 +18 1019.1 1008.4
02 20.06 штиль 0 н/о н/о +18.6 +18 +18 1018.8 1008.1
03 20.06 штиль 0 н/о н/о +18.5 +18 +18 1017.9 1007.3
04 20.06 С 2 н/о н/о +18.5 -27.6 3 +19 +19 1018.0 1007.4
05 20.06
{5}
н/о н/о +18.3 1017.5 1006.9
06 20.06 штиль 0 н/о н/о +18.3 +18 +18 1017.3 1006.7 +18.1
07 20.06 штиль 0 н/о н/о +18.5 +18 +18 1017.3 1006.7
08 20.06 В 3-6
{6}
н/о н/о +19.2 -27.1 3 +19 +19 1017.4 1006.8
09 20.06 В 5-8
{8}
н/о н/о +19.7 -26.8 3 +19 +19 1017.5 1006.9
10 20.06 ЮВ 5
{8}
н/о н/о +20.3 +19 +19 1017.1 1006.5
11 20.06 ЮВ 3-6
{6}
н/о н/о +19.6 +19 +19 1017.0 1006.5
12 20.06 ЮВ 3
{5}
н/о н/о +20.3 +19 +19 1017.2 1006.7
13 20.06 ЮВ 3
{6}
н/о н/о +21.5 -25.6 3 +19 +19 1016.9 1006.4
14 20.06 ЮВ 3
{6}
н/о н/о +20.3 +19 +19 1016.8 1006.2
15 20.06 ЮВ 4-8
{10}
н/о н/о +18.4 -27.6 3 +18 +18 1016.2 1005.6 0.2
16 20.06 ЮВ 5
{9}
н/о н/о +18.4 +18 +18 1015.6 1005.1
17 20.06 Ю 3-6
{7}
н/о н/о +19.0 +19 +19 1015.4 1004.8
18 20.06 ЮВ 3
{6}
н/о н/о +20.4 +19.8 96 +25 +25 комфорт 1015.1 1004.6 +22.3
19 20.06 Ю 4-7
{7}
н/о н/о +19.5 +19.5 100 +22 +22 комфорт 1015.5 1004.9
20 20.06
{7}
н/о н/о +19.3 +19.3 100 1015.7 1005.1
21 20.06 штиль 0
{5}
н/о н/о +18.8 +18.8 100 +20 +20 1015.9 1005.3 0.2
22 20.06 штиль 0 н/о н/о +18.3 +13.5 74 +19 +19 1015.7 1005.1
23 20.06 штиль 0 н/о н/о +18.4 +12.9 70 +19 +19 1015.9 1005.3
00 21.06 штиль 0 н/о н/о +18.1 +13.9 76 +18 +18 1015.9 1005.3
01 21.06 штиль 0 н/о н/о +17.6 +17.5 99 +18 +18 1015.6 1005.0
02 21.06 штиль 0 н/о н/о +17.9 +17.9 100 +18 +18 1015.2 1004.5 0.1
03 21.06 штиль 0 н/о н/о +17.9 +18 +18 1014.0 1003.4 0.1
04 21.06 штиль 0 н/о н/о +18.0 +18 +18 1013.4 1002.8
05 21.06 штиль 0 н/о н/о +18.1 -27.9 3 +18 +18 1012.9 1002.4
06 21.06 штиль 0 н/о н/о +18.4 -27.7 3 +18 +18 1012.8 1002.3 +17.6
07 21.06 ЮВ 3
{6}
н/о н/о +18.5 +18 +18 1012.3 1001.7
08 21.06 ЮВ 4-8
{8}
н/о н/о +19.0 -27.2 3 +18 +18 1011.7 1001.1
09 21.06 В 6-11
{11}
100 м {дождь, туман} 10/10 50 м
[Cu Sc]
+19.3 +18.9 98 +21 +21 комфорт 1011.3 1000.8 3
10 21.06 В 5-10
{13}
н/о н/о +18.8 -27.4 3 +18 +18 1010.2 999.7 5
11 21.06 ЮВ 7-12
{14}
н/о н/о +19.4 +18 +18 1008.8 998.4 0.1
12 21.06 Ю 6-11
{12}
100 м дождь {туман} 10/10 <50 м
[]
+19.3 -24.1 4 +18 +18 1008.8 998.3
13 21.06 Ю 7-11
{11}
н/о н/о +19.9 +18 +18 1008.8 998.3 0.8
14 21.06 Ю 8-13
{16}
н/о н/о +20.8 -26.0 3 +19 +19 1008.9 998.4
15 21.06 ЮЗ 8-13
{15}
1000 м {дождь} 4/4 600 м
[Sc diur, vesp Ac und]
+21.7 +19.3 86 +27 +29 душно 1009.0 998.5
16 21.06 ЮЗ 7-15
{15}
н/о н/о +21.6 +17.6 78 +26 +26 душно 1009.7 999.2
17 21.06 Ю 9-14
{15}
н/о н/о +20.8 +16.8 78 +24 +24 комфорт 1009.7 999.3
18 21.06 Ю 6-10
{15}
н/о н/о +20.5 +16.1 76 +23 +23 комфорт 1010.6 1000.2 +22.2
19 21.06 ЮЗ 7-11
{13}
н/о н/о +19.7 +14.8 73 +21 +21 комфорт 1010.9 1000.4
20 21.06 ЮЗ 4-8
{12}
н/о н/о +19.3 +15.6 79 +21 +21 комфорт 1011.5 1001.0
21 21.06 нст 3-7
{9}
н/о н/о +18.1 +17.4 96 1011.9 1001.3 6
22 21.06
{7}
н/о н/о +17.8 +17.7 99 1012.5 1001.9
23 21.06 штиль 0
{6}
н/о н/о +17.7 +17.7 100 +18 +18 1013.2 1002.6
00 22.06 штиль 0 н/о н/о +17.4 +17.4 100 +17 +17 1013.2 1002.6
01 22.06 Ю 4-7
{7}
н/о н/о +17.6 +17.6 100 +17 +17 1013.0 1002.4
02 22.06 штиль 0
{5}
н/о н/о +17.1 +17.1 100 +17 +17 1012.8 1002.2
03 22.06 штиль 0 н/о н/о +17.1 +17.1 100 +17 +17 1012.5 1001.9
04 22.06 штиль 0
{5}
н/о н/о +17.1 +17.1 100 +17 +17 1012.1 1001.5
05 22.06 штиль 0
{6}
н/о н/о +17.7 +17.7 100 +18 +18 1012.1 1001.5
06 22.06 Ю 3-7
{7}
н/о н/о +18.1 +18.1 100 +18 +18 1012.1 1001.5 +16.9
07 22.06 Ю 4-7
{9}
н/о н/о +18.2 +18.2 100 +18 +18 1012.1 1001.6
08 22.06 Ю 5-11
{11}
н/о н/о +18.6 +18 +18 1012.0 1001.5
09 22.06 Ю 4-8
{10}
н/о н/о +19.0 +19.0 100 +21 +21 комфорт 1012.7 1002.1
10 22.06 ЮЗ 5-8
{9}
н/о н/о +19.6 +16.8 84 +22 +22 комфорт 1012.5 1002.0
11 22.06 Ю 4-8
{10}
н/о н/о +19.3 +17.4 89 +21 +21 комфорт 1012.9 1002.4
12 22.06 Ю 6-11
{11}
н/о н/о +20.3 +17.2 82 +23 +23 комфорт 1013.0 1002.5
13 22.06 Ю 6-10
{11}
н/о н/о +20.4 +18.5 89 +24 +24 комфорт 1013.0 1002.5
14 22.06 Ю 5-8
{12}
н/о н/о +20.8 +18.3 86 +25 +25 комфорт 1012.7 1002.3
15 22.06 Ю 7-10
{11}
н/о н/о +20.7 +16.7 78 +24 +24 комфорт 1012.8 1002.3
16 22.06 Ю 6-10
{12}
н/о н/о +20.9 +14.7 68 +24 +24 комфорт 1012.3 1001.9
17 22.06 Ю 4-9
{10}
н/о н/о +20.7 +14.2 66 +24 +24 комфорт 1012.1 1001.6
18 22.06 ЮВ 5-7
{8}
н/о н/о +19.3 +19.3 100 +21 +21 комфорт 1012.2 1001.6 +21.7
19 22.06 С 3
{8}
н/о н/о +19.0 +19.0 100 +21 +21 комфорт 1011.9 1001.4
20 22.06 штиль 0
{6}
н/о н/о +18.4 +18 +18 1012.3 1001.7
21 22.06 штиль 0 н/о н/о +18.1 +18 +18 1012.0 1001.5
22 22.06 штиль 0 н/о н/о +18.1 -25.5 4 +18 +18 1012.3 1001.7
23 22.06 штиль 0 н/о н/о +18.0 -27.9 3 +18 +18 1012.6 1002.0
00 23.06 штиль 0 н/о н/о +17.8 -28.1 3 +18 +18 1012.5 1001.9
01 23.06 штиль 0 н/о н/о +17.7 +17.4 98 +18 +18 1012.3 1001.7
02 23.06 З 4-6
{6}
н/о н/о +17.9 +14.7 82 +18 +18 1012.2 1001.7
03 23.06 СЗ 2
{6}
н/о н/о +17.1 +15.0 87 +17 +17 1012.3 1001.7
04 23.06 штиль 0 н/о н/о +16.4 +16.4 100 +16 +16 1012.3 1001.7
05 23.06 н/о н/о +16.9 +16.3 96 1012.7 1002.1
06 23.06 штиль 0 н/о н/о +17.1 +15.0 87 +17 +17 1013.2 1002.6 +16.3
07 23.06 штиль 0 н/о н/о +17.2 +12.9 76 +17 +17 1013.4 1002.8
08 23.06 штиль 0 н/о н/о +17.9 +13.6 76 +18 +18 1013.9 1003.3
09 23.06 З 3-6
{6}
н/о н/о +18.3 +12.3 68 +19 +19 1014.3 1003.8
10 23.06 С 3-7
{7}
н/о н/о +19.9 +13.3 66 +22 +22 комфорт 1014.6 1004.1
11 23.06 З 4-7
{7}
н/о н/о +18.9 +13.6 71 +20 +20 1014.9 1004.4
12 23.06 З 3-7
{7}
н/о н/о +20.5 +12.3 59 +23 +23 комфорт 1014.9 1004.4
13 23.06 З 4-7
{8}
н/о н/о +21.1 +12.4 58 +23 +23 комфорт 1015.1 1004.6
14 23.06 З 4-6
{7}
н/о н/о +21.9 +12.4 55 +24 +24 комфорт 1015.2 1004.8
15 23.06 З 5-8
{8}
н/о н/о +20.8 +12.5 59 +23 +23 комфорт 1015.4 1004.9
16 23.06 З 4-8
{8}
н/о н/о +20.5 +12.5 60 +23 +23 комфорт 1015.5 1005.0
17 23.06 Ю 4-7
{8}
н/о н/о +20.7 +14.2 66 +24 +24 комфорт 1015.4 1004.9
18 23.06 С 1-6
{8}
н/о н/о +19.8 +14.6 72 +23 +23 комфорт 1015.7 1005.2 +22.1
19 23.06 З 4-7
{7}
н/о н/о +19.5 +12.6 64 +21 +21 комфорт 1015.9 1005.3
20 23.06 С 1
{7}
н/о н/о +18.9 +13.7 72 +21 +21 комфорт 1016.6 1006.0
21 23.06 нст 2
{6}
н/о н/о +18.3 +13.4 73 1017.2 1006.5
22 23.06 н/о н/о +17.4 +13.9 80 1017.8 1007.2
23 23.06 штиль 0 н/о н/о +17.4 +13.5 78 +17 +17 1018.4 1007.8
00 24.06 штиль 0 н/о н/о +17.1 +14.1 83 +17 +17 1018.4 1007.7
01 24.06 штиль 0 н/о н/о +16.9 +14.4 85 +17 +17 1018.4 1007.7
02 24.06 штиль 0 н/о н/о +17.1 +14.4 84 +17 +17 1018.4 1007.7
03 24.06 штиль 0 н/о н/о +16.7 +14.7 88 +17 +17 1018.1 1007.4
04 24.06 штиль 0 н/о н/о +16.6 +14.3 86 +16 +16 1017.9 1007.2
05 24.06 штиль 0 н/о н/о +15.5 +15.5 100 +15 +15 1018.0 1007.3
06 24.06 штиль 0 н/о н/о +16.6 +14.9 90 +16 +16 1018.2 1007.5 +15.5
07 24.06 штиль 0
{5}
н/о н/о +16.2 +14.0 87 +16 +16 1018.6 1007.9
08 24.06 штиль 0 н/о н/о +17.6 +13.3 76 +18 +18 1019.0 1008.4
09 24.06 штиль 0 н/о н/о +18.1 +13.6 75 +18 +18 1019.5 1008.9
10 24.06 штиль 0
{5}
н/о н/о +18.8 +12.9 69 +20 +20 1020.1 1009.4
11 24.06
{5}
н/о н/о +20.1 +13.3 65 1020.1 1009.5
12 24.06 З 3-7
{7}
н/о н/о +21.0 +13.1 61 +24 +24 комфорт 1020.4 1009.8
13 24.06 З 4-6
{7}
н/о н/о +21.1 +12.8 59 +23 +23 комфорт 1020.6 1010.1
14 24.06 -7
{7}
н/о н/о +21.5 +14.3 64 1020.6 1010.0
15 24.06 В 3
{7}
н/о н/о +20.6 +14.7 69 +24 +24 комфорт 1020.9 1010.3
16 24.06
{6}
н/о н/о +20.8 +15.3 71 1021.1 1010.5
17 24.06 СВ 2
{5}
н/о н/о +20.4 +14.9 71 +24 +24 комфорт 1021.0 1010.4
18 24.06 С 1
{7}
н/о н/о +20.1 +13.7 67 +23 +23 комфорт 1021.2 1010.6 +22.2
19 24.06 штиль 0
{6}
н/о н/о +20.2 +14.9 72 +22 +22 комфорт 1021.1 1010.5
20 24.06 З 6 н/о н/о +18.9 +13.3 70 +19 +19 1021.5 1010.9
21 24.06 СЗ 2-6
{8}
н/о н/о +18.3 +13.2 72 +19 +19 1022.2 1011.6
22 24.06 З 3-6
{6}
н/о н/о +18.1 +12.8 71 +18 +18 1022.8 1012.2
23 24.06 штиль 0 н/о н/о +18.1 +13.0 72 +18 +18 1023.5 1012.8
00 25.06 штиль 0
{5}
н/о н/о +18.2 +13.6 75 +18 +18 1023.7 1013.1
01 25.06 штиль 0 н/о н/о +18.0 +13.9 77 +18 +18 1023.6 1012.9
02 25.06 штиль 0 н/о н/о +18.0 +13.1 73 +18 +18 1023.2 1012.6
03 25.06 штиль 0
{5}
н/о н/о +17.6 +12.8 73 +18 +18 1023.1 1012.4
04 25.06 штиль 0 н/о н/о +17.7 +12.9 73 +18 +18 1022.8 1012.1
05 25.06 штиль 0 н/о н/о +17.6 +13.7 78 +18 +18 1022.8 1012.1
06 25.06 штиль 0 н/о н/о +17.3 +13.6 79 +17 +17 1023.0 1012.3 +17.3
07 25.06 штиль 0 н/о н/о +17.3 +13.0 76 +17 +17 1023.2 1012.5
08 25.06 штиль 0
{5}
н/о н/о +17.9 +13.4 75 +18 +18 1023.6 1012.9
09 25.06 нст 2 2000 м 9/9 300 м
[St Ac lent]
+18.7 +12.5 67 1024.1 1013.4

 

Местоположение метеостанции Ангра-ду-Эроижму (Португалия): широта 38.67 долгота -27.21 высота над уровнем моря 76 м.

В архиве по умолчанию представлена погода в Ангра-ду-Эроижму за последнюю неделю. Архивные данные за месяц целиком и за предыдущие месяцы, начиная с января 2011 года, Вы можете получить, выбрав интересующий диапазон дат из раскрывающегося списка и нажав кнопку "Ввод!".


*Определитесь, кто Вы:
робот инопланетянин человек

Внимание! Время в таблицах - всемирное. Для получения местного времени необходимо прибавить поправку, которая равна 0 ч.

Смотрите также архив погоды в соседних городах и на ближайших метеорологических станциях:

Погода в Аэропорту Лажеша (Португалия) (15 км)
Погода в Сан-Жоржи (Португалия) (83 км)
Погода на Острове Грасьоса (Португалия) (84 км)
Погода в Пико (Португалия) (108 км)
Погода в Орте (Португалия) (125 км)
Погода в Каштелу-Бранку (Португалия) (131 км)
Погода в Понта-Делгаде (Португалия) (168 км)
Погода в Санта-Марии (Португалия) (261 км)
Погода на Флошише (Португалия) (349 км)
Погода в Фуншале (Португалия) (1148 км)

Пояснения к столбцам:

Ветер - указаны скорость ветра в м/с - средняя за 10 мин, порывы в срок и между сроками (в фигурных скобках) и направление, откуда дует ветер: С - северный, СВ - северо-восточный, В - восточный, ЮВ - юго-восточный, Ю - южный, ЮЗ - юго-западный, З - западный, СЗ - северо-западный.
Видимость - горизонтальная дальность видимости в метрах или километрах. При видимости от 1 до 10 км при отсутствии осадков обычно наблюдается дымка, при ухудшении видимости до 1 км и менее - туман. В сухую погоду видимость может ухудшаться дымом, пылью или мглою.
Явления - указаны атмосферные явления, наблюдавшиеся в срок или в последний час перед сроком; фигурными скобками обозначены явления, наблюдавшиеся между сроками (за 1-3 часа до срока); квадратными скобками обозначены град или гололедные отложения с указанием их диаметра в мм.
Облачность - указаны через наклонную черту общая и нижняя облачность в баллах и высота нижней границы облаков в метрах; квадратными скобками обозначены формы облаков: Ci - перистые, Cs - перисто-слоистые, Cc - перисто-кучевые, Ac - высококучевые, As - высокослоистые, Sc - слоисто-кучевые, Ns - слоисто-дождевые, Cu - кучевые, Cb - кучево-дождевые. Подробнее классификацию облаков см. в Атласе облаков (PDF).
T - Температура воздуха - температура, измеренная на высоте 2 м над землей.
Td - Температура точки росы - температура, при понижении до которой содержащийся в воздухе водяной пар достигнет насыщения.
f - Относительная влажность воздуха - влажноcть воздуха, измеренная на высоте 2 м над землей.
Te - Эффективная температура - температура, которую ощущает одетый по сезону человек в тени. Характеристика душности погоды. При расчете учитывается влияние влажности воздуха и скорости ветра на теплоощущения человека.
Tes - Эффективная температура на солнце - температура, которую ощущает человек, с поправкой на солнечный нагрев. Характеристика знойности погоды. Зависит от высоты солнца над горизонтом, облачности и скорости ветра. Ночью, в пасмурную погоду, а также при ветре 12 м/с и более поправка равна нулю.
P - Атмосферное давление - приведенное к уровню моря атмосферное давление.
Po - Атмосферное давление - измеренное на уровне метеостанции атмосферное давление.
Tmin - Минимальная температура - минимум температуры воздуха на высоте 2 м над землей.
Tmax - Максимальная температура - максимум температуры воздуха на высоте 2 м над землей.
R - Количество осадков - Количество выпавших осадков за период времени, мм. При наведении курсора мыши на число - период времени, за который выпало указанное количество осадков.
R24 - Количество осадков - Количество выпавших осадков за 24 часа, мм.
S - Снежный покров - Высота снежного покрова, см. При наведении курсора мыши на число - состояние снежного покрова и степень покрытия местности в баллах.